When you browse on this site, cookies collect data to enhance your experience and personalize the content and advertising you see.
Visit our Privacy Policy to learn more. By continuing to use the site, you agree to this use of cookies and data.
  • en Suisse
  • Liste des pays
  • À 7 jours
  • Température de l'eau
  • Carte satellitaire
  • Carte météo
  • Widgets météo
  • user-avatar
    Se connecter

    Météo par heure à Tovstolis

    Ce jour, 17 Juillet, Mercredi

    Heure Température Précipitation Vent Pression Humidité
    00:00 +15°C° 0 mm 1 m/s 743 mmHg 73%
    01:00 +15°C° 0 mm 2 m/s 743 mmHg 76%
    02:00 +14°C° 0 mm 2 m/s 743 mmHg 80%
    03:00 +14°C° 0 mm 2 m/s 742 mmHg 82%
    04:00 +15°C° 0 mm 2 m/s 742 mmHg 84%
    05:00 +15°C° 0 mm 2 m/s 742 mmHg 85%
    06:00 +14°C° 0.2 mm 3 m/s 742 mmHg 84%
    07:00 +16°C° 0.2 mm 3 m/s 742 mmHg 83%
    08:00 +17°C° 0.2 mm 4 m/s 742 mmHg 82%
    09:00 +18°C° 0 mm 4 m/s 742 mmHg 76%
    10:00 +19°C° 0 mm 4 m/s 742 mmHg 69%
    11:00 +20°C° 0 mm 5 m/s 742 mmHg 62%
    12:00 +21°C° 0.1 mm 5 m/s 742 mmHg 61%
    13:00 +21°C° 0.1 mm 5 m/s 742 mmHg 60%
    14:00 +21°C° 0.1 mm 5 m/s 742 mmHg 59%
    15:00 +21°C° 0.3 mm 5 m/s 742 mmHg 61%
    16:00 +21°C° 0.3 mm 4 m/s 741 mmHg 64%
    17:00 +20°C° 0.3 mm 4 m/s 741 mmHg 67%
    18:00 +19°C° 0.2 mm 3 m/s 741 mmHg 72%
    19:00 +17°C° 0.2 mm 3 m/s 741 mmHg 78%
    20:00 +15°C° 0.2 mm 2 m/s 741 mmHg 84%
    21:00 +14°C° 0 mm 3 m/s 742 mmHg 87%
    22:00 +13°C° 0 mm 3 m/s 742 mmHg 89%
    23:00 +12°C° 0 mm 3 m/s 742 mmHg 92%

    Demain, 18 Juillet, Jeudi

    Heure Température Précipitation Vent Pression Humidité
    00:00 +12°C° 0 mm 3 m/s 742 mmHg 93%
    01:00 +11°C° 0 mm 3 m/s 742 mmHg 94%
    02:00 +11°C° 0 mm 3 m/s 742 mmHg 95%
    03:00 +11°C° 0 mm 3 m/s 742 mmHg 95%
    04:00 +11°C° 0 mm 3 m/s 742 mmHg 95%
    05:00 +11°C° 0 mm 3 m/s 742 mmHg 95%
    06:00 +12°C° 0 mm 4 m/s 742 mmHg 91%
    07:00 +14°C° 0 mm 4 m/s 742 mmHg 86%
    08:00 +15°C° 0 mm 5 m/s 742 mmHg 82%
    09:00 +16°C° 0.2 mm 5 m/s 743 mmHg 80%
    10:00 +16°C° 0.2 mm 5 m/s 743 mmHg 78%
    11:00 +17°C° 0.2 mm 5 m/s 743 mmHg 76%
    12:00 +19°C° 0.5 mm 6 m/s 743 mmHg 74%
    13:00 +20°C° 0.5 mm 6 m/s 743 mmHg 72%
    14:00 +21°C° 0.5 mm 6 m/s 743 mmHg 70%
    15:00 +20°C° 0.4 mm 6 m/s 743 mmHg 71%
    16:00 +20°C° 0.4 mm 5 m/s 743 mmHg 73%
    17:00 +20°C° 0.4 mm 5 m/s 743 mmHg 75%
    18:00 +18°C° 0.1 mm 4 m/s 744 mmHg 81%
    19:00 +17°C° 0.1 mm 4 m/s 744 mmHg 86%
    20:00 +16°C° 0.1 mm 3 m/s 744 mmHg 91%
    21:00 +16°C° 0 mm 3 m/s 744 mmHg 93%
    22:00 +14°C° 0 mm 3 m/s 745 mmHg 94%
    23:00 +14°C° 0 mm 3 m/s 745 mmHg 95%

    Après-demain, 19 Juillet, Vendredi

    Heure Température Précipitation Vent Pression Humidité
    00:00 +13°C° 0 mm 3 m/s 745 mmHg 96%
    01:00 +13°C° 0 mm 3 m/s 745 mmHg 96%
    02:00 +13°C° 0 mm 3 m/s 745 mmHg 97%
    03:00 +13°C° 0 mm 3 m/s 745 mmHg 97%
    04:00 +13°C° 0 mm 3 m/s 746 mmHg 98%
    05:00 +13°C° 0 mm 3 m/s 746 mmHg 98%
    06:00 +14°C° 0 mm 4 m/s 746 mmHg 93%
    07:00 +17°C° 0 mm 4 m/s 746 mmHg 88%
    08:00 +18°C° 0 mm 4 m/s 747 mmHg 83%
    09:00 +20°C° 0 mm 5 m/s 747 mmHg 76%
    10:00 +21°C° 0 mm 5 m/s 747 mmHg 69%
    11:00 +23°C° 0 mm 5 m/s 747 mmHg 62%
    12:00 +23°C° 0.3 mm 5 m/s 747 mmHg 61%
    13:00 +23°C° 0.3 mm 5 m/s 747 mmHg 60%
    14:00 +25°C° 0.3 mm 5 m/s 747 mmHg 59%
    15:00 +25°C° 0.1 mm 4 m/s 747 mmHg 59%
    16:00 +25°C° 0.1 mm 4 m/s 747 mmHg 59%
    17:00 +25°C° 0.1 mm 4 m/s 747 mmHg 59%
    18:00 +22°C° 0 mm 3 m/s 748 mmHg 64%
    19:00 +20°C° 0 mm 2 m/s 748 mmHg 69%
    20:00 +18°C° 0 mm 2 m/s 748 mmHg 74%
    21:00 +18°C° 0 mm 2 m/s 748 mmHg 77%
    22:00 +17°C° 0 mm 2 m/s 749 mmHg 81%
    23:00 +16°C° 0 mm 2 m/s 749 mmHg 84%

    20 Juillet, Samedi

    Heure Température Précipitation Vent Pression Humidité
    00:00 +16°C° 0 mm 1 m/s 749 mmHg 85%
    01:00 +15°C° 0 mm 1 m/s 749 mmHg 87%
    02:00 +15°C° 0 mm 1 m/s 749 mmHg 89%
    03:00 +15°C° 0 mm 1 m/s 749 mmHg 89%
    04:00 +15°C° 0 mm 1 m/s 749 mmHg 90%
    05:00 +15°C° 0 mm 1 m/s 750 mmHg 90%
    06:00 +18°C° 0 mm 1 m/s 750 mmHg 84%
    07:00 +19°C° 0 mm 2 m/s 750 mmHg 78%
    08:00 +20°C° 0 mm 2 m/s 750 mmHg 72%
    09:00 +23°C° 0 mm 2 m/s 750 mmHg 66%
    10:00 +24°C° 0 mm 2 m/s 751 mmHg 61%
    11:00 +25°C° 0 mm 2 m/s 751 mmHg 56%
    12:00 +26°C° 0 mm 2 m/s 751 mmHg 53%
    13:00 +26°C° 0 mm 2 m/s 751 mmHg 50%
    14:00 +27°C° 0 mm 2 m/s 751 mmHg 47%
    15:00 +27°C° 0 mm 2 m/s 751 mmHg 50%
    16:00 +26°C° 0 mm 2 m/s 751 mmHg 52%
    17:00 +26°C° 0 mm 1 m/s 751 mmHg 54%
    18:00 +24°C° 0 mm 1 m/s 751 mmHg 60%
    19:00 +23°C° 0 mm 1 m/s 751 mmHg 67%
    20:00 +21°C° 0 mm 1 m/s 751 mmHg 73%
    21:00 +20°C° 0 mm 1 m/s 751 mmHg 75%
    22:00 +17°C° 0 mm 0 m/s 751 mmHg 77%
    23:00 +17°C° 0 mm 0 m/s 751 mmHg 80%

    21 Juillet, Dimanche

    Heure Température Précipitation Vent Pression Humidité
    00:00 +16°C° 0 mm 0 m/s 751 mmHg 81%
    01:00 +16°C° 0 mm 0 m/s 751 mmHg 81%
    02:00 +16°C° 0 mm 0 m/s 751 mmHg 82%
    03:00 +16°C° 0 mm 0 m/s 751 mmHg 83%
    04:00 +16°C° 0 mm 0 m/s 751 mmHg 83%
    05:00 +16°C° 0 mm 0 m/s 751 mmHg 83%
    06:00 +18°C° 0 mm 0 m/s 751 mmHg 77%
    07:00 +22°C° 0 mm 1 m/s 751 mmHg 71%
    08:00 +24°C° 0 mm 1 m/s 751 mmHg 64%
    09:00 +25°C° 0 mm 1 m/s 751 mmHg 60%
    10:00 +26°C° 0 mm 1 m/s 751 mmHg 55%
    11:00 +27°C° 0 mm 2 m/s 752 mmHg 51%
    12:00 +28°C° 0 mm 2 m/s 751 mmHg 49%
    13:00 +28°C° 0 mm 2 m/s 751 mmHg 47%
    14:00 +28°C° 0 mm 2 m/s 751 mmHg 45%
    15:00 +28°C° 0 mm 2 m/s 751 mmHg 49%
    16:00 +28°C° 0 mm 2 m/s 751 mmHg 52%
    17:00 +27°C° 0 mm 2 m/s 751 mmHg 56%
    18:00 +26°C° 0 mm 2 m/s 751 mmHg 60%
    19:00 +24°C° 0 mm 1 m/s 751 mmHg 65%
    20:00 +22°C° 0 mm 1 m/s 751 mmHg 70%
    21:00 +21°C° 0 mm 1 m/s 751 mmHg 73%
    22:00 +19°C° 0 mm 2 m/s 751 mmHg 77%
    23:00 +19°C° 0 mm 2 m/s 751 mmHg 80%

    22 Juillet, Lundi

    Heure Température Précipitation Vent Pression Humidité
    00:00 +19°C° 0 mm 2 m/s 751 mmHg 80%
    01:00 +19°C° 0 mm 2 m/s 751 mmHg 79%
    02:00 +19°C° 0 mm 2 m/s 751 mmHg 79%
    03:00 +19°C° 0 mm 2 m/s 751 mmHg 79%
    04:00 +19°C° 0 mm 2 m/s 751 mmHg 80%
    05:00 +19°C° 0 mm 2 m/s 751 mmHg 80%
    06:00 +20°C° 0 mm 2 m/s 751 mmHg 77%
    07:00 +21°C° 0 mm 2 m/s 751 mmHg 75%
    08:00 +23°C° 0 mm 2 m/s 751 mmHg 72%
    09:00 +23°C° 0.2 mm 1 m/s 751 mmHg 74%
    10:00 +23°C° 0.2 mm 1 m/s 751 mmHg 76%
    11:00 +23°C° 0.2 mm 1 m/s 751 mmHg 78%
    12:00 +24°C° 0.2 mm 1 m/s 751 mmHg 76%
    13:00 +25°C° 0.2 mm 2 m/s 750 mmHg 73%
    14:00 +25°C° 0.2 mm 3 m/s 750 mmHg 71%
    15:00 +25°C° 1.5 mm 2 m/s 750 mmHg 76%
    16:00 +24°C° 1.5 mm 2 m/s 750 mmHg 80%
    17:00 +23°C° 1.5 mm 1 m/s 749 mmHg 85%
    18:00 +21°C° 0.6 mm 2 m/s 749 mmHg 88%
    19:00 +21°C° 0.6 mm 2 m/s 749 mmHg 90%
    20:00 +20°C° 0.6 mm 2 m/s 749 mmHg 93%
    21:00 +20°C° 0.1 mm 2 m/s 749 mmHg 94%
    22:00 +19°C° 0.1 mm 2 m/s 749 mmHg 95%
    23:00 +19°C° 0.1 mm 2 m/s 749 mmHg 95%
    Voir plus